Вернуться в каталог

AYAME 2 DEB

АктивенHEO
NORAD 38685·DEBRIS·🇯🇵 Japan

Запущен Feb 22, 1980 с Tanegashima Space Center

Loading…

Ближайшие Пролёты (ближайшие 24 часа)

TLE

СвежийSource: Space-Track

Эпоха: Sep 11, 2026, 20:53 UTC

1 38685U 80018F   26254.87043147 -.00000166  00000-0  00000+0 0  9993
2 38685  10.2042  12.4816 4387771 346.5724   4.6791  1.76288011 91147

Отслеживайте AYAME 2 DEB в реальном времени с AllMySat

Download on the App Store